Вернуться в каталог

DELTA 1 DEB

АктивенSSO
NORAD 14458·DEBRIS·🇺🇸 United States

Запущен Mar 5, 1978 с Vandenberg Space Force Base

Loading…

Ближайшие Пролёты (ближайшие 24 часа)

TLE

СвежийSource: Space-Track

Эпоха: Sep 13, 2026, 09:02 UTC

1 14458U 78026FY  26256.37639374  .00000358  00000-0  23605-3 0  9993
2 14458  98.9636 200.1177 0067886 216.6291 270.4375 14.07017989223130

Отслеживайте DELTA 1 DEB в реальном времени с AllMySat

Download on the App Store